User: anonymous
Location: M.A.R.S.Observatory
(35.4031°N, 81.5481°W)
Time: 10:45:50
(UTC-04:00)
Language:

SL-8 R/B - Orbit

View from above orbital plane
View from above orbital plane
View from above satellite
View from above satellite

Ground track
Ground track

The orbit data is extracted from the following two-line orbital elements,

1 33066U 08031G   14209.81471936  .00000064  00000-0  43866-4 0  8434
2 33066 048.4447 000.3318 0007657 337.5939 164.4325 14.68833287327715
Epoch (UTC): 28 July 2014 19:33:11
Eccentricity: 0.0007657
inclination: 48.4447°
perigee height: 659 km
apogee height: 670 km
right ascension of ascending node: 0.3318°
argument of perigee: 337.5939°
revolutions per day: 14.68833287
mean anomaly at epoch: 164.4325°
orbit number at epoch: 32771

The dashed part of the orbit path shows where the satellite is in the earth's shadow,  

DLR